Location: Hawaiian Village Mobile Home Park
(32.8359°N, 116.9792°W)
Time: 17:44:00
(UTC+00:00)

Cosmos 1484 Rocket - Pass Details

Date: 01 August 2021
Orbit: 504 x 558 km, 97.4° (Epoch: 23 September)

Event Time Altitude Azimuth Distance (km) Brightness Sun altitude
Rises 12:09:19 0° 9° (N) 2,740 7.0 -10.8°
Reaches altitude 10° 12:11:27 10° 8° (N) 1,845 6.0 -10.4°
Maximum altitude 12:15:27 76° 283° (WNW) 579 2.8 -9.7°
Drops below altitude 10° 12:19:25 10° 197° (SSW) 1,836 5.1 -8.9°
Enters shadow 12:21:07 - 196° (SSW) 2,550 5.8 -8.6°
